"2016-05-07 00:00:00",1611291,6.037,23.94,1.31,0.299,20.54,107.3426,18.07,19.14,32.98,0,110.8,13.12,18.89,345.9
"2016-05-07 00:00:30",1611292,5.647,22.86,1.233,0.486,20.48,107.3413,18.07,19.14,32.88,0,110.8,13.12,18.89,344.9
"2016-05-07 00:01:00",1611293,5.91,23.22,1.837,0.615,20.48,107.3419,18.07,19.14,32.94,0,110.9,13.12,18.89,345.2
"2016-05-07 00:01:30",1611294,6.337,24.22,1.088,0.34,20.58,107.3449,18.08,19.12,32.79,0,110.8,13.12,18.89,346.2
"2016-05-07 00:02:00",1611295,6.119,24.02,1.501,0.453,20.55,107.3479,18.09,19.14,32.58,0,110.8,13.12,18.90,346.0
"2016-05-07 00:02:30",1611296,5.872,22.85,1.565,0.401,20.41,107.3491,18.09,19.12,32.85,0,110.8,13.12,18.91,344.9
"2016-05-07 00:03:00",1611297,6.188,23.77,1,0.358,20.46,107.3516,18.1,19.12,33.34,0,110.8,13.12,18.91,345.8
"2016-05-07 00:03:30",1611298,6.452,23.51,0.968,0.253,20.47,107.3555,18.11,19.12,33.06,0,110.8,13.12,18.92,345.5
"2016-05-07 00:04:00",1611299,6.151,23.93,2.517,0.447,20.48,107.357,18.11,19.11,33.57,0,110.8,13.12,18.93,345.9
"2016-05-07 00:04:30",1611300,6.183,26.74,2.134,0.36,20.64,107.356,18.11,19.1,32.71,0,110.8,13.12,18.92,348.7
"2016-05-07 00:05:00",1611301,6.108,27.55,2.091,0.38,20.7,107.3463,18.08,19.08,32.63,0,110.8,13.12,18.90,349.5
"2016-05-07 00:05:30",1611302,6.365,26.97,3.056,0.297,20.63,107.3319,18.05,19.08,32.71,0,110.8,13.12,18.86,349.0
"2016-05-07 00:06:00",1611303,6.51,24.22,0.937,0.277,20.58,107.3308,18.04,19.07,31.96,0,110.8,13.12,18.86,346.2
"2016-05-07 00:06:30",1611304,5.72,26.76,1.718,0.279,20.64,107.3308,18.04,19.08,32.18,0,110.8,13.12,18.86,348.8
"2016-05-07 00:07:00",1611305,6.272,24.95,1.26,0.258,20.57,107.3311,18.04,19.05,32.22,0,110.8,13.12,18.86,347.0
"2016-05-07 00:07:30",1611306,6.339,25.96,1.309,0.282,20.55,107.3308,18.04,19.05,32.18,0,110.8,13.12,18.86,348.0
"2016-05-07 00:08:00",1611307,5.873,27.19,1.45,0.22,20.7,107.3311,18.04,19.04,32.15,0,110.8,13.12,18.86,349.2
"2016-05-07 00:08:30",1611308,5.578,27.87,0.858,0.212,20.7,107.3274,18.03,19.02,32.13,0,110.8,13.12,18.85,349.9
"2016-05-07 00:09:00",1611309,5.154,29.47,1.521,0.337,20.8,107.3192,18.01,19.01,32.16,0,110.8,13.12,18.83,351.5
"2016-05-07 00:09:30",1611310,5.016,30.93,1.461,0.286,20.84,107.3094,17.99,19.01,32.31,0,110.8,13.12,18.80,352.9
"2016-05-07 00:10:00",1611311,4.878,30.85,1.592,0.239,20.79,107.2987,17.96,19,32.14,0,110.8,13.12,18.78,352.9
"2016-05-07 00:10:30",1611312,4.883,31.05,1.54,0.223,20.76,107.2973,17.96,19,32.15,0,110.8,13.12,18.77,353.0
"2016-05-07 00:11:00",1611313,5.114,31.21,1.476,0.325,20.74,107.2973,17.96,18.97,32.17,0,110.8,13.12,18.77,353.2
"2016-05-07 00:11:30",1611314,4.952,32.22,1.287,0.297,20.77,107.2973,17.96,18.99,32.12,0,110.8,13.12,18.77,354.2
"2016-05-07 00:12:00",1611315,4.985,31.55,1.797,0.225,20.78,107.2973,17.96,18.96,32.18,0,110.8,13.12,18.77,353.5
"2016-05-07 00:12:30",1611316,5.072,31.73,1.878,0.354,20.78,107.2973,17.96,18.97,32.08,0,110.8,13.12,18.77,353.7
"2016-05-07 00:13:00",1611317,5.091,32.8,1.788,0.368,20.75,107.2973,17.96,18.98,32.19,0,110.8,13.12,18.77,354.8
"2016-05-07 00:13:30",1611318,5.501,34.79,2.262,0.6,20.83,107.2973,17.96,18.97,32.48,0,110.8,13.12,18.77,356.8
"2016-05-07 00:14:00",1611319,7.082,40.7,2.011,0.568,20.97,107.2973,17.96,18.94,32.86,0,110.8,13.12,18.77,2.7
"2016-05-07 00:14:30",1611320,7.44,44.48,0.975,0.081,21.02,107.2973,17.96,18.97,33.02,0,110.8,13.12,18.77,6.5
"2016-05-07 00:15:00",1611321,7.273,43.91,0.893,0.105,21,107.2973,17.96,18.95,33,0,110.8,13.12,18.77,5.9
"2016-05-07 00:15:30",1611322,7.316,43.8,0.549,0.101,21.02,107.2973,17.96,18.95,32.94,0,110.8,13.12,18.77,5.8
"2016-05-07 00:16:00",1611323,7.345,42.84,0.357,0.099,21,107.2973,17.96,18.95,32.99,0,110.8,13.12,18.77,4.8
"2016-05-07 00:16:30",1611324,7.158,41.74,1.492,0.312,20.97,107.2973,17.96,18.95,32.95,0,110.8,13.12,18.77,3.7
"2016-05-07 00:17:00",1611325,7.385,42.48,1.089,0.138,21.03,107.2973,17.96,18.96,32.92,0,110.8,13.12,18.77,4.5
"2016-05-07 00:17:30",1611326,7.102,40.17,0.968,0.271,20.95,107.2979,17.96,18.96,32.99,0,110.8,13.12,18.77,2.2
"2016-05-07 00:18:00",1611327,6.311,38.78,0.89,0.392,20.9,107.3063,17.98,18.97,32.94,0,110.8,13.12,18.80,0.8
"2016-05-07 00:18:30",1611328,6.11,38.07,2,0.662,20.86,107.3167,18.01,18.98,32.94,0,110.8,13.12,18.82,0.1
"2016-05-07 00:19:00",1611329,5.542,36.39,1.82,0.622,20.83,107.3195,18.01,18.99,32.72,0,110.8,13.13,18.83,358.4
"2016-05-07 00:19:30",1611330,6.075,38.06,1.25,0.497,20.82,107.3212,18.02,18.97,32.82,0,110.8,13.13,18.83,0.1
"2016-05-07 00:20:00",1611331,5.919,37.52,1.686,0.623,20.82,107.3223,18.02,18.97,32.71,0,110.8,13.13,18.84,359.5
"2016-05-07 00:20:30",1611332,6.527,38.36,1.144,0.465,20.84,107.3218,18.02,18.99,32.75,0,110.8,13.13,18.84,0.4
"2016-05-07 00:21:00",1611333,6.915,39.85,1.389,0.492,20.93,107.3184,18.01,18.99,32.84,0,110.8,13.13,18.83,1.8
"2016-05-07 00:21:30",1611334,7.21,40.27,0.677,0.176,20.99,107.3184,18.01,18.98,33.05,0,110.8,13.13,18.83,2.3
"2016-05-07 00:22:00",1611335,6.898,39.84,1.022,0.307,20.96,107.3178,18.01,18.99,33.09,0,110.8,13.13,18.82,1.8
"2016-05-07 00:22:30",1611336,7.128,39.98,0.741,0.19,20.97,107.3207,18.02,18.99,33.21,0,110.8,13.13,18.83,2.0
"2016-05-07 00:23:00",1611337,6.981,40.07,1.612,0.509,21.01,107.3212,18.02,19,33.03,0,110.8,13.13,18.83,2.1
"2016-05-07 00:23:30",1611338,7.572,42.08,1.016,0.2,21.05,107.3229,18.02,18.99,32.95,0,110.8,13.13,18.84,4.1
"2016-05-07 00:24:00",1611339,7.665,42.52,1.185,0.129,21.07,107.3266,18.03,19,32.68,0,110.8,13.13,18.85,4.5
"2016-05-07 00:24:30",1611340,7.464,41.79,0.712,0.117,21.02,107.3302,18.04,18.99,33.16,0,110.8,13.13,18.86,3.8
"2016-05-07 00:25:00",1611341,7.396,42.45,0.485,0.096,21,107.3311,18.04,19,33.49,0,110.8,13.13,18.86,4.5
"2016-05-07 00:25:30",1611342,7.63,42.64,0.688,0.113,20.95,107.3311,18.04,19.01,33.53,0,110.8,13.13,18.86,4.6
"2016-05-07 00:26:00",1611343,7.73,42.66,0.924,0.074,20.94,107.3311,18.04,19.01,33.56,0,110.8,13.13,18.86,4.7
"2016-05-07 00:26:30",1611344,7.764,42.69,0.683,0.1,21,107.3311,18.04,19.02,33.31,0,110.8,13.13,18.86,4.7
"2016-05-07 00:27:00",1611345,7.947,43.25,0.645,0.063,21,107.3311,18.04,19.02,32.97,0,110.8,13.12,18.86,5.2
"2016-05-07 00:27:30",1611346,8.06,44.16,0.936,0.084,21.04,107.3311,18.04,19.03,32.77,0,110.8,13.12,18.86,6.2
"2016-05-07 00:28:00",1611347,7.971,43.59,0.72,0.102,21.02,107.3311,18.04,19.03,32.88,0,110.8,13.12,18.86,5.6
"2016-05-07 00:28:30",1611348,7.863,43.86,0.826,0.112,21,107.3314,18.04,19.04,32.81,0,110.8,13.12,18.86,5.9
"2016-05-07 00:29:00",1611349,7.884,44.01,0.775,0.107,21.01,107.3311,18.04,19.03,32.77,0,110.8,13.12,18.86,6.0
"2016-05-07 00:29:30",1611350,7.798,44.37,0.514,0.071,21.01,107.332,18.05,19.03,32.87,0,110.8,13.12,18.86,6.4
"2016-05-07 00:30:00",1611351,7.668,43.73,0.712,0.096,21.03,107.3317,18.05,19.04,33.01,0,110.8,13.12,18.86,5.7
"2016-05-07 00:30:30",1611352,7.715,44.3,0.561,0.089,20.96,107.3317,18.05,19.06,33.11,0,110.8,13.12,18.86,6.3
"2016-05-07 00:31:00",1611353,7.942,44.9,0.712,0.053,21.01,107.3317,18.05,19.05,33.19,0,110.8,13.12,18.86,6.9
"2016-05-07 00:31:30",1611354,7.98,45.47,0.897,0.099,20.97,107.3332,18.05,19.07,33.3,0,110.8,13.12,18.86,7.5
"2016-05-07 00:32:00",1611355,7.994,44.62,1.008,0.126,20.9,107.3356,18.06,19.07,33.38,0,110.8,13.12,18.87,6.6
"2016-05-07 00:32:30",1611356,7.925,44.26,0.906,0.116,20.91,107.3353,18.05,19.05,33.34,0,110.8,13.12,18.87,6.3
"2016-05-07 00:33:00",1611357,7.863,42.76,1.094,0.184,20.89,107.3353,18.05,19.07,33.29,0,110.8,13.12,18.87,4.8
"2016-05-07 00:33:30",1611358,7.249,40.12,1.413,0.337,20.88,107.3353,18.05,19.07,32.98,0,110.8,13.12,18.87,2.1
"2016-05-07 00:34:00",1611359,7.241,39.84,1.027,0.337,20.86,107.3374,18.06,19.07,32.97,0,110.8,13.13,18.88,1.8
"2016-05-07 00:34:30",1611360,6.97,38.43,1.078,0.401,20.82,107.3383,18.06,19.06,32.91,0,110.8,13.13,18.88,0.4
"2016-05-07 00:35:00",1611361,7.443,39.33,0.827,0.235,20.83,107.3371,18.06,19.07,32.95,0,110.8,13.13,18.87,1.3
"2016-05-07 00:35:30",1611362,7.598,39.46,0.76,0.263,20.82,107.3364,18.06,19.04,33,0,110.8,13.13,18.87,1.5
"2016-05-07 00:36:00",1611363,7.427,38.21,1.467,0.545,20.74,107.3244,18.03,19.06,33.18,0,110.8,13.13,18.84,0.2
"2016-05-07 00:36:30",1611364,6.771,36.71,1.193,0.455,20.67,107.3063,17.98,19.03,32.94,0,110.8,13.13,18.80,358.7
"2016-05-07 00:37:00",1611365,7.144,36.82,0.938,0.261,20.7,107.3067,17.98,19.03,32.94,0,110.8,13.13,18.80,358.8
"2016-05-07 00:37:30",1611366,7.579,38.04,0.899,0.341,20.79,107.3076,17.98,19,33.2,0,110.8,13.13,18.80,0.0
"2016-05-07 00:38:00",1611367,7.816,38.32,0.789,0.295,20.79,107.3046,17.98,19,33.3,0,110.8,13.13,18.79,0.3
"2016-05-07 00:38:30",1611368,6.574,36.05,1.174,0.401,20.7,107.2845,17.92,18.98,33.04,0,110.8,13.13,18.74,358.0
"2016-05-07 00:39:00",1611369,6.636,36.51,1.189,0.388,20.76,107.2765,17.9,18.97,33.1,0,110.8,13.13,18.72,358.5
"2016-05-07 00:39:30",1611370,6.962,37.18,1.411,0.545,20.82,107.2804,17.91,18.95,33.2,0,110.8,13.13,18.73,359.2
"2016-05-07 00:40:00",1611371,6.694,37.16,1.289,0.46,20.84,107.2822,17.92,18.92,33.21,0,110.8,13.13,18.73,359.2
"2016-05-07 00:40:30",1611372,6.825,37.34,1.174,0.465,20.89,107.2746,17.9,18.91,33.45,0,110.8,13.13,18.71,359.3
"2016-05-07 00:41:00",1611373,6.805,37.3,1.221,0.365,20.85,107.2612,17.86,18.91,33.52,0,110.8,13.13,18.68,359.3
"2016-05-07 00:41:30",1611374,5.839,35.27,1.592,0.486,20.79,107.2518,17.84,18.89,33.34,0,110.8,13.13,18.66,357.3
"2016-05-07 00:42:00",1611375,5.652,32.85,1.675,0.315,20.69,107.2542,17.85,18.89,32.66,0,110.8,13.13,18.66,354.9
"2016-05-07 00:42:30",1611376,6.003,31.15,0.861,0.178,20.65,107.2557,17.85,18.86,31.82,0,110.8,13.13,18.67,353.1
"2016-05-07 00:43:00",1611377,6.206,31.76,0.921,0.175,20.58,107.2578,17.86,18.85,31.42,0,110.8,13.13,18.67,353.8
"2016-05-07 00:43:30",1611378,6.412,32.07,0.948,0.2,20.59,107.2583,17.86,18.84,31.37,0,110.8,13.13,18.67,354.1
"2016-05-07 00:44:00",1611379,6.691,32.42,0.993,0.196,20.61,107.2382,17.81,18.82,31.39,0,110.8,13.13,18.62,354.4
"2016-05-07 00:44:30",1611380,5.999,32.77,0.951,0.29,20.67,107.2303,17.79,18.8,32.06,0,110.7,13.13,18.60,354.8
"2016-05-07 00:45:00",1611381,5.876,32.51,0.811,0.166,20.59,107.231,17.79,18.8,32.39,0,110.7,13.13,18.60,354.5
"2016-05-07 00:45:30",1611382,6.006,32.77,1.099,0.161,20.55,107.2316,17.79,18.79,32.97,0,110.7,13.13,18.60,354.8
"2016-05-07 00:46:00",1611383,6.007,32.98,1.117,0.161,20.62,107.231,17.79,18.77,33.08,0,110.7,13.13,18.60,355.0
"2016-05-07 00:46:30",1611384,5.941,33.92,1.236,0.184,20.67,107.2184,17.76,18.76,33.28,0,110.7,13.13,18.57,355.9
"2016-05-07 00:47:00",1611385,6.197,34.73,0.94,0.235,20.73,107.1995,17.71,18.75,33.56,0,110.7,13.13,18.52,356.7
"2016-05-07 00:47:30",1611386,6.396,35.6,0.954,0.243,20.72,107.1984,17.7,18.73,33.89,0,110.7,13.13,18.52,357.6
"2016-05-07 00:48:00",1611387,6.605,35.65,1.281,0.248,20.89,107.1984,17.7,18.71,33.86,0,110.7,13.13,18.52,357.6
"2016-05-07 00:48:30",1611388,6.908,36.51,0.89,0.249,20.74,107.1984,17.7,18.71,33.62,0,110.7,13.13,18.52,358.5
"2016-05-07 00:49:00",1611389,7.225,37.36,1.162,0.318,20.79,107.1984,17.7,18.68,33.95,0,110.7,13.13,18.52,359.4
"2016-05-07 00:49:30",1611390,7.736,38.91,0.611,0.192,20.81,107.1981,17.7,18.67,33.98,0,110.7,13.13,18.52,0.9
"2016-05-07 00:50:00",1611391,7.732,39.32,0.68,0.186,20.84,107.1916,17.69,18.67,34.24,0,110.7,13.13,18.50,1.3
"2016-05-07 00:50:30",1611392,7.667,39.57,0.589,0.232,21.15,107.1899,17.68,18.66,34.69,0,110.7,13.13,18.50,1.6
"2016-05-07 00:51:00",1611393,7.802,40.24,0.831,0.251,20.84,107.1913,17.69,18.66,35.68,0,110.7,13.13,18.50,2.2
"2016-05-07 00:51:30",1611394,8.07,42.02,0.551,0.103,20.87,107.1922,17.69,18.66,36.6,0,110.7,13.13,18.50,4.0
"2016-05-07 00:52:00",1611395,7.832,40.44,0.778,0.25,20.81,107.1905,17.68,18.65,36.59,0,110.7,13.14,18.50,2.4
"2016-05-07 00:52:30",1611396,7.803,41.14,1.084,0.212,20.81,107.193,17.69,18.64,36.55,0,110.7,13.14,18.50,3.1
"2016-05-07 00:53:00",1611397,8.09,41.75,0.473,0.084,20.85,107.1905,17.68,18.65,36.31,0,110.7,13.14,18.50,3.8
"2016-05-07 00:53:30",1611398,8.12,40.74,0.367,0.073,20.88,107.1888,17.68,18.64,36.14,0,110.7,13.14,18.49,2.7
"2016-05-07 00:54:00",1611399,8.22,40.16,0.399,0.174,20.89,107.1905,17.68,18.64,35.81,0,110.7,13.14,18.50,2.2
"2016-05-07 00:54:30",1611400,8.56,41.1,0.377,0.085,20.93,107.1925,17.69,18.63,35.03,0,110.7,13.14,18.50,3.1
"2016-05-07 00:55:00",1611401,8.68,41.96,0.401,0.101,20.94,107.1981,17.7,18.65,34.48,0,110.7,13.14,18.52,4.0
"2016-05-07 00:55:30",1611402,8.78,41.49,0.44,0.093,20.9,107.1984,17.7,18.63,34.51,0,110.7,13.14,18.52,3.5
"2016-05-07 00:56:00",1611403,8.4,39.57,0.886,0.32,20.88,107.1984,17.7,18.63,34.12,0,110.7,13.14,18.52,1.6
"2016-05-07 00:56:30",1611404,7.724,38.45,0.675,0.29,20.87,107.1984,17.7,18.64,34.35,0,110.7,13.14,18.52,0.5
"2016-05-07 00:57:00",1611405,7.837,38.75,0.45,0.211,20.89,107.1984,17.7,18.64,34.01,0,110.7,13.14,18.52,0.8
"2016-05-07 00:57:30",1611406,7.517,38.07,0.778,0.211,20.88,107.1984,17.7,18.66,33.24,0,110.7,13.14,18.52,0.1
"2016-05-07 00:58:00",1611407,7.381,37.64,1.067,0.367,20.93,107.1984,17.7,18.65,33.06,0,110.7,13.14,18.52,359.6
"2016-05-07 00:58:30",1611408,6.37,35.77,0.884,0.201,20.82,107.1984,17.7,18.66,33.23,0,110.7,13.14,18.52,357.8
"2016-05-07 00:59:00",1611409,7.523,38.73,0.712,0.277,20.88,107.1987,17.7,18.67,32.8,0,110.7,13.14,18.52,0.7
"2016-05-07 00:59:30",1611410,7.403,38.59,0.7,0.271,20.86,107.2071,17.73,18.67,32.88,0,110.7,13.14,18.54,0.6
"2016-05-07 01:00:00",1611411,7.269,38.38,0.857,0.217,20.83,107.2184,17.76,18.69,33.33,0,110.7,13.14,18.57,0.4
"2016-05-07 01:00:30",1611412,6.92,37.74,0.958,0.342,20.81,107.2262,17.78,18.68,34.06,0,110.7,13.14,18.59,359.7
"2016-05-07 01:01:00",1611413,6.282,37.06,1.124,0.26,20.8,107.2308,17.79,18.69,34.49,0,110.7,13.13,18.60,359.1
"2016-05-07 01:01:30",1611414,5.934,36.09,0.99,0.407,20.94,107.2322,17.79,18.7,34.15,0,110.7,13.14,18.60,358.1
"2016-05-07 01:02:00",1611415,5.658,36.22,0.995,0.292,20.92,107.2322,17.79,18.72,33.34,0,110.7,13.14,18.60,358.2
"2016-05-07 01:02:30",1611416,5.601,36.12,0.952,0.279,20.83,107.2322,17.79,18.71,34.36,0,110.7,13.14,18.60,358.1
"2016-05-07 01:03:00",1611417,5.329,35.57,0.997,0.301,20.83,107.2322,17.79,18.72,34.73,0,110.7,13.13,18.60,357.6
"2016-05-07 01:03:30",1611418,4.945,34.55,1.333,0.229,20.86,107.2322,17.79,18.71,34.13,0,110.7,13.13,18.60,356.5
"2016-05-07 01:04:00",1611419,4.669,33.69,1.464,0.255,20.86,107.2322,17.79,18.73,33.54,0,110.7,13.13,18.60,355.7
"2016-05-07 01:04:30",1611420,4.621,34.18,1.116,0.193,20.79,107.2322,17.79,18.73,32.85,0,110.7,13.13,18.60,356.2
"2016-05-07 01:05:00",1611421,4.516,31.75,1.612,0.162,20.8,107.2322,17.79,18.74,32.54,0,110.7,13.13,18.60,353.8
"2016-05-07 01:05:30",1611422,4.78,29.76,1.166,0.221,20.88,107.2322,17.79,18.75,32.11,0,110.7,13.13,18.60,351.8
"2016-05-07 01:06:00",1611423,4.754,29.27,1.509,0.354,20.78,107.2322,17.79,18.74,32.46,0,110.7,13.13,18.60,351.3
"2016-05-07 01:06:30",1611424,5.53,26.55,1.263,0.286,20.74,107.2322,17.79,18.74,32.65,0,110.7,13.14,18.60,348.5
"2016-05-07 01:07:00",1611425,5.905,24.53,0.861,0.192,20.67,107.2322,17.79,18.74,33.29,0,110.7,13.13,18.60,346.5
"2016-05-07 01:07:30",1611426,5.849,23.52,0.993,0.16,20.71,107.2322,17.79,18.75,33.18,0,110.7,13.13,18.60,345.5
"2016-05-07 01:08:00",1611427,5.153,21.55,1.614,0.375,20.86,107.2322,17.79,18.75,33.1,0,110.7,13.14,18.60,343.5
"2016-05-07 01:08:30",1611428,3.176,16.64,2.113,0.435,20.72,107.2322,17.79,18.74,33.31,0,110.7,13.14,18.60,338.6
"2016-05-07 01:09:00",1611429,2.32,13.71,3.163,0.3,20.78,107.2322,17.79,18.76,34.15,0,110.7,13.14,18.60,335.7
"2016-05-07 01:09:30",1611430,2.12,6.948,4.767,0.266,20.9,107.2322,17.79,18.76,34.74,0,110.7,13.14,18.60,328.9
"2016-05-07 01:10:00",1611431,2.688,1.257,3.55,0.349,20.93,107.2291,17.78,18.75,35.06,0,110.7,13.14,18.60,323.3
"2016-05-07 01:10:30",1611432,3.437,358.4,2.986,0.413,20.76,107.2232,17.77,18.75,35.01,0,110.7,13.14,18.58,320.4
"2016-05-07 01:11:00",1611433,4.627,355.4,2.207,0.495,20.81,107.2046,17.72,18.75,35.52,0,110.7,13.14,18.53,317.4
"2016-05-07 01:11:30",1611434,6.056,350.6,2.206,0.416,21.09,107.1984,17.7,18.74,35.73,0,110.7,13.14,18.52,312.6
"2016-05-07 01:12:00",1611435,6.976,343.6,3.591,0.353,20.95,107.1984,17.7,18.73,36.14,0,110.7,13.14,18.52,305.6
"2016-05-07 01:12:30",1611436,7.591,335.6,4.949,0.192,20.9,107.1984,17.7,18.74,37.05,0,110.7,13.14,18.52,297.6
"2016-05-07 01:13:00",1611437,7.173,331.1,3.588,0.227,21.19,107.1984,17.7,18.74,37.26,0,110.7,13.14,18.52,293.1
"2016-05-07 01:13:30",1611438,7.608,333.6,2.029,0.321,20.96,107.1984,17.7,18.73,37.14,0,110.7,13.14,18.52,295.6
"2016-05-07 01:14:00",1611439,7.513,329.3,1.751,0.2,21.39,107.1981,17.7,18.71,37.01,0,110.7,13.14,18.52,291.3
"2016-05-07 01:14:30",1611440,7.32,330,2.15,0.302,21.08,107.1865,17.67,18.71,36.99,0,110.7,13.14,18.49,292.0
"2016-05-07 01:15:00",1611441,7.91,331.8,3.68,0.191,21.02,107.1761,17.65,18.69,37.04,0,110.7,13.15,18.46,293.8
"2016-05-07 01:15:30",1611442,8.03,331.6,1.599,0.419,20.99,107.1646,17.62,18.68,36.71,0,110.7,13.15,18.43,293.6
"2016-05-07 01:16:00",1611443,7.815,335.5,1.368,0.282,20.78,107.1646,17.62,18.67,36,0,110.7,13.15,18.43,297.5
"2016-05-07 01:16:30",1611444,7.434,338.4,0.881,0.114,20.74,107.1626,17.61,18.64,35.8,0,110.7,13.15,18.43,300.4
"2016-05-07 01:17:00",1611445,7.421,341.6,1.117,0.063,20.69,107.155,17.59,18.65,35.36,0,110.7,13.15,18.41,303.6
"2016-05-07 01:17:30",1611446,7.58,344.2,0.784,0.064,20.82,107.1367,17.55,18.62,35.07,0,110.7,13.15,18.36,306.2
"2016-05-07 01:18:00",1611447,7.737,343.3,0.748,0.093,20.91,107.1317,17.53,18.62,34.96,0,110.7,13.15,18.35,305.3
"2016-05-07 01:18:30",1611448,7.741,342.8,0.594,0.114,20.96,107.1308,17.53,18.61,34.74,0,110.7,13.15,18.34,304.8
"2016-05-07 01:19:00",1611449,7.818,342.6,0.765,0.082,21.02,107.1311,17.53,18.58,34.84,0,110.7,13.15,18.34,304.6
"2016-05-07 01:19:30",1611450,7.654,343.1,0.911,0.092,21.03,107.1302,17.53,18.57,34.86,0,110.7,13.15,18.34,305.1
"2016-05-07 01:20:00",1611451,7.443,344.2,0.834,0.122,21.04,107.1207,17.5,18.57,34.93,0,110.7,13.15,18.32,306.2
"2016-05-07 01:20:30",1611452,7.131,345.3,0.498,0.115,21.05,107.1137,17.49,18.55,34.86,0,110.7,13.15,18.30,307.3
"2016-05-07 01:21:00",1611453,6.786,345.3,0.579,0.101,21.01,107.104,17.46,18.55,34.59,0,110.7,13.15,18.27,307.3
"2016-05-07 01:21:30",1611454,6.766,344,0.793,0.085,21.09,107.1,17.45,18.52,34.56,0,110.7,13.15,18.26,306.0
"2016-05-07 01:22:00",1611455,6.711,344.3,1.187,0.076,21.13,107.1003,17.45,18.51,34.59,0,110.7,13.15,18.27,306.3
"2016-05-07 01:22:30",1611456,6.806,345.4,0.717,0.055,21.17,107.1003,17.45,18.49,34.67,0,110.7,13.15,18.27,307.4
"2016-05-07 01:23:00",1611457,7.074,346.6,1.111,0.104,21.46,107.1021,17.46,18.49,34.86,0,110.7,13.15,18.27,308.6
"2016-05-07 01:23:30",1611458,7.393,350.1,1.161,0.087,21.27,107.103,17.46,18.49,34.98,0,110.7,13.15,18.27,312.1
"2016-05-07 01:24:00",1611459,6.774,354.9,2.278,0.644,21.2,107.104,17.46,18.47,34.67,0,110.7,13.15,18.27,316.9
"2016-05-07 01:24:30",1611460,5.457,359.5,1.412,0.365,21.16,107.1049,17.46,18.48,34.53,0,110.7,13.15,18.28,321.5
"2016-05-07 01:25:00",1611461,5.144,1.598,1.654,0.248,21.14,107.106,17.47,18.47,34.53,0,110.7,13.15,18.28,323.6
"2016-05-07 01:25:30",1611462,6.221,7.511,2.19,0.776,21.21,107.1063,17.47,18.48,34.44,0,110.7,13.15,18.28,329.5
"2016-05-07 01:26:00",1611463,7.121,9.1,2.052,0.782,21.29,107.1081,17.47,18.48,34.48,0,110.7,13.15,18.29,331.1
"2016-05-07 01:26:30",1611464,8.49,14.09,1.281,0.243,21.47,107.1081,17.47,18.46,34.59,0,110.7,13.15,18.29,336.1
"2016-05-07 01:27:00",1611465,9.27,18.62,1.646,0.309,21.3,107.1118,17.48,18.46,34.68,0,110.7,13.15,18.29,340.6
"2016-05-07 01:27:30",1611466,10.4,20.58,1.476,0.457,21.28,107.1166,17.49,18.46,34.38,0,110.7,13.15,18.31,342.6
"2016-05-07 01:28:00",1611467,11.42,21.01,1.81,0.201,21.3,107.12,17.5,18.45,33.9,0,110.7,13.15,18.32,343.0
"2016-05-07 01:28:30",1611468,10.45,25.05,2.405,0.867,21.77,107.1208,17.51,18.46,31.67,0,110.7,13.15,18.32,347.0
"2016-05-07 01:29:00",1611469,9.01,46.01,7.3,1.329,22.67,107.1258,17.52,18.46,29.04,0,110.7,13.15,18.33,8.0
"2016-05-07 01:29:30",1611470,8.81,41.69,6.433,1.347,22.67,107.1401,17.55,18.44,29.05,0,110.7,13.15,18.37,3.7
"2016-05-07 01:30:00",1611471,4.194,75.06,11.58,0.828,23.3,107.1664,17.62,18.47,27.54,0,110.7,13.15,18.44,37.1
"2016-05-07 01:30:30",1611472,3.903,45.62,13.02,1.1,22.46,107.1892,17.68,18.49,28.05,0,110.7,13.15,18.49,7.6
"2016-05-07 01:31:00",1611473,3.039,20.88,21.99,0.86,22.84,107.2219,17.76,18.55,27.8,0,110.7,13.15,18.58,342.9
"2016-05-07 01:31:30",1611474,3.83,356.8,8.84,0.67,22.46,107.238,17.81,18.59,26.5,0,110.7,13.15,18.62,318.8
"2016-05-07 01:32:00",1611475,4.38,2.599,4.343,0.94,20.29,107.2673,17.88,18.65,31.56,0,110.7,13.15,18.69,324.6
"2016-05-07 01:32:30",1611476,3.433,11.72,4.715,0.521,20.5,107.2808,17.92,18.69,32.7,0,110.7,13.15,18.73,333.7
"2016-05-07 01:33:00",1611477,5.166,3.49,4.23,1.174,21.06,107.3022,17.97,18.74,31.33,0,110.7,13.15,18.78,325.5
"2016-05-07 01:33:30",1611478,6.09,1.517,3.261,0.587,20.48,107.3143,18,18.79,32.8,0,110.7,13.15,18.82,323.5
"2016-05-07 01:34:00",1611479,7.238,0.475,3.767,0.878,20.62,107.3324,18.05,18.83,32.68,0,110.7,13.15,18.86,322.5
"2016-05-07 01:34:30",1611480,7.23,1.805,2.999,0.687,20.66,107.336,18.06,18.85,32.77,0,110.7,13.15,18.87,323.8
"2016-05-07 01:35:00",1611481,7.613,355.2,4.354,0.502,20.7,107.336,18.06,18.88,32.7,0,110.7,13.15,18.87,317.2
"2016-05-07 01:35:30",1611482,7.239,353.4,2.476,0.882,20.69,107.336,18.06,18.89,32.69,0,110.7,13.15,18.87,315.4
"2016-05-07 01:36:00",1611483,5.033,359.6,3.295,0.652,20.67,107.3357,18.06,18.91,32.68,0,110.7,13.15,18.87,321.6
"2016-05-07 01:36:30",1611484,4.868,358.1,3.851,0.948,20.63,107.329,18.04,18.91,32.81,0,110.7,13.15,18.85,320.1
"2016-05-07 01:37:00",1611485,3.736,5.358,4.09,0.501,20.71,107.316,18.01,18.92,32.83,0,110.7,13.14,18.82,327.4
"2016-05-07 01:37:30",1611486,2.921,8.79,3.897,0.343,20.72,107.3028,17.97,18.93,32.86,0,110.7,13.15,18.79,330.8
"2016-05-07 01:38:00",1611487,2.995,12.62,2.671,0.43,20.72,107.3022,17.97,18.93,32.92,0,110.7,13.14,18.78,334.6
"2016-05-07 01:38:30",1611488,3.687,15.67,2.746,0.656,20.78,107.3022,17.97,18.91,32.93,0,110.7,13.14,18.78,337.7
"2016-05-07 01:39:00",1611489,4.506,17.51,2.559,0.642,20.72,107.3022,17.97,18.92,32.85,0,110.7,13.14,18.78,339.5
"2016-05-07 01:39:30",1611490,6.414,22.37,1.233,0.528,20.65,107.2946,17.95,18.91,33.03,0,110.7,13.14,18.77,344.4
"2016-05-07 01:40:00",1611491,6.646,22.75,1.158,0.407,20.66,107.2791,17.91,18.89,33.22,0,110.7,13.14,18.73,344.8
"2016-05-07 01:40:30",1611492,7.008,24.1,0.819,0.179,20.7,107.2687,17.88,18.9,33.19,0,110.7,13.14,18.70,346.1
"2016-05-07 01:41:00",1611493,7,25.34,1.068,0.229,20.68,107.2684,17.88,18.89,33.2,0,110.7,13.14,18.70,347.3
"2016-05-07 01:41:30",1611494,6.891,28.3,2.247,0.444,20.63,107.2684,17.88,18.88,33.3,0,110.7,13.14,18.70,350.3
"2016-05-07 01:42:00",1611495,6.878,26.49,1.572,0.269,20.64,107.2684,17.88,18.87,33.59,0,110.7,13.14,18.70,348.5
"2016-05-07 01:42:30",1611496,6.827,28.14,1.295,0.329,20.65,107.2653,17.88,18.86,33.55,0,110.7,13.15,18.69,350.1
"2016-05-07 01:43:00",1611497,7.264,28.82,1.322,0.481,20.67,107.2543,17.85,18.84,33.45,0,110.7,13.15,18.66,350.8
"2016-05-07 01:43:30",1611498,7.335,24.18,2.704,0.338,20.7,107.2355,17.8,18.84,33.47,0,110.7,13.15,18.61,346.2
"2016-05-07 01:44:00",1611499,6.455,17.75,2.831,0.627,20.7,107.2346,17.8,18.82,33.46,0,110.7,13.15,18.61,339.8
"2016-05-07 01:44:30",1611500,6.378,15.2,2.144,0.7,20.7,107.2346,17.8,18.81,33.51,0,110.7,13.15,18.61,337.2
"2016-05-07 01:45:00",1611501,7.004,11.6,1.613,0.355,20.75,107.2346,17.8,18.8,33.48,0,110.7,13.15,18.61,333.6
"2016-05-07 01:45:30",1611502,5.871,8.48,1.839,0.567,20.7,107.2307,17.79,18.79,33.47,0,110.7,13.15,18.60,330.5
"2016-05-07 01:46:00",1611503,4.255,12.4,4.619,0.716,20.64,107.218,17.75,18.77,33.54,0,110.7,13.15,18.57,334.4
"2016-05-07 01:46:30",1611504,3.348,15.01,2.78,0.41,20.64,107.2031,17.72,18.75,33.74,0,110.7,13.15,18.53,337.0
"2016-05-07 01:47:00",1611505,5.238,11.93,3.287,1.542,20.6,107.2008,17.71,18.74,33.98,0,110.7,13.15,18.52,333.9
"2016-05-07 01:47:30",1611506,7.172,18.19,5.572,0.718,20.69,107.2008,17.71,18.74,33.98,0,110.7,13.15,18.52,340.2